Home   Weather   Papeete   Past weeks

Flag for French Polynesia Past Weather in Papeete, Tahiti, French Polynesia — Yesterday and Last 2 Weeks

Now
79 °F

Partly sunny.


Feels Like: 82 °F
Forecast: 79 / 86 °F
Wind: 6 mph from East

Location: Tahiti-Faaa

Current Time: Feb 21, 2017 at 7:00:54 am

Latest Report: Feb 21, 2017 at 6:30 am


Visibility: N/A

Pressure: 29.92 "Hg

Humidity: 84%

Dew Point: 73 °F

Location of PapeeteLocation

Past Weather in Papeete — Graph

°F

Papeete Temperature Yesterday

Maximum temperature yesterday: 88 °F (at 2:00 pm)
Minimum temperature yesterday: 77 °F (at 1:00 am)
Average temperature yesterday: 80 °F

High & Low Weather Summary for the Past Weeks

 TemperatureHumidityPressure
High90 °F (Feb 10, 10:30 am)100% (Feb 17, 8:30 am)30.01 "Hg (Feb 17, 8:30 am)
Low75 °F (Feb 7, 5:00 am)59% (Feb 14, 12:00 pm)29.56 "Hg (Feb 16, 3:00 am)
Average82 °F79%29.83 "Hg
* Reported Feb 6 9:00 am — Feb 21 6:00 am, Papeete, Weather by CustomWeather, © 2017

Note: Actual official high and low records may vary slightly from our data, if they occured in-between our weather recording intervals... More about our weather records

Advertising

Papeete Weather History for the Previous 24 Hours

Scroll right to see more
 ConditionsComfort  
Time TempWeatherWind HumidityBarometerVisibility
6:00 am
Tue, Feb 21
79 °FPartly sunny.5 mph79%29.89 "HgN/A
5:30 am81 °FWarm.6 mph74%29.89 "HgN/A
5:00 am81 °FPassing clouds.7 mph74%29.89 "HgN/A
4:30 am81 °FPassing clouds.7 mph79%29.86 "HgN/A
4:00 am81 °FPassing clouds.6 mph79%29.86 "HgN/A
3:30 am79 °FPartly cloudy.7 mph84%29.86 "HgN/A
2:30 am81 °FPartly cloudy.6 mph79%29.89 "HgN/A
2:00 am81 °FPartly cloudy.7 mph79%29.89 "HgN/A
1:36 am81 °FPartly cloudy.6 mph79%29.89 "HgN/A
1:00 am81 °FPartly cloudy.6 mph84%29.89 "HgN/A
12:00 am81 °FPartly cloudy.5 mph84%29.92 "HgN/A
11:30 pm
Mon, Feb 20
81 °FPartly cloudy.6 mph84%29.92 "HgN/A
11:00 pm81 °FPartly cloudy.6 mph79%29.92 "HgN/A
10:30 pm81 °FPartly cloudy.7 mph79%29.92 "HgN/A
10:00 pm81 °FPartly cloudy.7 mph79%29.92 "HgN/A
9:30 pm81 °FScattered showers. Partly cloudy.7 mph84%29.92 "HgN/A
9:00 pm81 °FScattered showers. Partly cloudy.7 mph84%29.92 "HgN/A
8:30 pm81 °FScattered showers. Partly cloudy.8 mph84%29.89 "HgN/A
8:00 pm81 °FScattered showers. Partly cloudy.7 mph89%29.89 "HgN/A
7:30 pm81 °FScattered showers. Partly cloudy.10 mph89%29.89 "HgN/A
7:00 pm81 °FScattered showers. Partly cloudy.20 mph89%29.86 "HgN/A
6:30 pm82 °FScattered showers. Partly cloudy.8 mph79%29.86 "HgN/A
6:00 pm82 °FLight rain. Broken clouds.9 mph84%29.86 "HgN/A
5:30 pm81 °FLight rain. Broken clouds.14 mph89%29.86 "HgN/A
5:00 pm84 °FPartly sunny.12 mph79%29.83 "HgN/A
4:30 pm84 °FPartly sunny.12 mph79%29.83 "HgN/A
4:00 pm84 °FPartly sunny.10 mph79%29.83 "HgN/A
3:30 pm82 °FScattered clouds.7 mph84%29.83 "HgN/A
3:00 pm82 °FScattered clouds.9 mph79%29.83 "HgN/A
2:30 pm84 °FScattered showers. Broken clouds.13 mph79%29.86 "Hg6 mi
2:00 pm88 °FScattered showers. Broken clouds.10 mph70%29.83 "HgN/A
1:30 pm86 °FBroken clouds.10 mph75%29.86 "HgN/A
1:00 pm86 °FBroken clouds.10 mph75%29.86 "HgN/A
12:30 pm86 °FPartly sunny.9 mph75%29.86 "HgN/A
12:00 pm84 °FPartly sunny.8 mph74%29.89 "HgN/A
11:30 am82 °FPartly sunny.10 mph79%29.89 "HgN/A
11:00 am82 °FBroken clouds.9 mph84%29.89 "HgN/A
10:30 am82 °FScattered showers. Partly sunny.8 mph79%29.89 "HgN/A
10:00 am81 °FPartly sunny.5 mph84%29.89 "HgN/A
9:30 am79 °FLight rain. Partly sunny.8 mph89%29.89 "HgN/A
9:00 am79 °FThundershowers. Broken clouds.8 mph89%29.89 "HgN/A
8:30 am79 °FThundershowers. Broken clouds.10 mph89%29.89 "HgN/A
8:00 am79 °FLight rain. Broken clouds.9 mph89%29.89 "HgN/A
7:30 am77 °FLight rain. Partly sunny.5 mph94%29.89 "HgN/A
7:00 am77 °FLight rain. Partly sunny.6 mph94%29.89 "HgN/A
Weather by CustomWeather, © 2017

See weather overviewHow to use our weather pages